| time (UTC) | temp C | wind direction | speed KPH | gust KPH | rain 1hr cm | rain 24hr cm | rain mn cm | humidity % | barometer mb |
| 20260509235333 | 22 | 1 | 6.4 | 16.1 | 0.00 | 0.00 | 0.00 | 22 | 1016.0 |
| 20260509234829 | 22 | 13 | 6.4 | 16.1 | 0.00 | 0.00 | 0.00 | 23 | 1016.0 |
| 20260509234326 | 22 | 313 | 4.8 | 17.7 | 0.00 | 0.00 | 0.00 | 24 | 1016.3 |
| 20260509233824 | 22 | 314 | 4.8 | 19.3 | 0.00 | 0.00 | 0.00 | 24 | 1016.3 |
| 20260509233321 | 22 | 336 | 6.4 | 19.3 | 0.00 | 0.00 | 0.00 | 24 | 1016.3 |
| 20260509232817 | 22 | 290 | 4.8 | 17.7 | 0.00 | 0.00 | 0.00 | 25 | 1016.3 |
| 20260509232315 | 22 | 308 | 6.4 | 25.7 | 0.00 | 0.00 | 0.00 | 25 | 1016.3 |
| 20260509231811 | 22 | 327 | 8.0 | 25.7 | 0.00 | 0.00 | 0.00 | 27 | 1016.3 |
| 20260509231308 | 22 | 318 | 8.0 | 20.9 | 0.00 | 0.00 | 0.00 | 27 | 1016.3 |
| 20260509230806 | 22 | 334 | 9.7 | 20.9 | 0.00 | 0.00 | 0.00 | 27 | 1016.3 |
| 20260509230302 | 22 | 2 | 8.0 | 20.9 | 0.00 | 0.00 | 0.00 | 27 | 1016.6 |
| 20260509225757 | 22 | 10 | 6.4 | 16.1 | 0.00 | 0.00 | 0.00 | 28 | 1016.3 |
| 20260509225254 | 22 | 287 | 8.0 | 17.7 | 0.00 | 0.00 | 0.00 | 27 | 1016.6 |
| 20260509224750 | 22 | 349 | 8.0 | 17.7 | 0.00 | 0.00 | 0.00 | 28 | 1016.6 |
| 20260509224247 | 22 | 302 | 8.0 | 17.7 | 0.00 | 0.00 | 0.00 | 28 | 1017.1 |
| 20260509223744 | 22 | 321 | 8.0 | 19.3 | 0.00 | 0.00 | 0.00 | 27 | 1017.1 |
| 20260509223241 | 22 | 339 | 8.0 | 24.1 | 0.00 | 0.00 | 0.00 | 26 | 1017.1 |
| 20260509222737 | 22 | 318 | 6.4 | 24.1 | 0.00 | 0.00 | 0.00 | 27 | 1017.1 |
| 20260509222233 | 22 | 321 | 6.4 | 20.9 | 0.00 | 0.00 | 0.00 | 25 | 1017.1 |
| 20260509221728 | 22 | 339 | 9.7 | 24.1 | 0.00 | 0.00 | 0.00 | 26 | 1017.1 |
| 20260509221225 | 22 | 352 | 9.7 | 24.1 | 0.00 | 0.00 | 0.00 | 27 | 1017.1 |
| 20260509220721 | 22 | 288 | 8.0 | 20.9 | 0.00 | 0.00 | 0.00 | 25 | 1017.1 |
| 20260509220217 | 22 | 28 | 6.4 | 16.1 | 0.00 | 0.00 | 0.00 | 28 | 1017.1 |
| 20260509215713 | 22 | 335 | 6.4 | 16.1 | 0.00 | 0.00 | 0.00 | 26 | 1017.4 |
| 20260509215210 | 22 | 352 | 6.4 | 16.1 | 0.00 | 0.00 | 0.00 | 29 | 1017.4 |
| 20260509214707 | 22 | 325 | 6.4 | 16.1 | 0.00 | 0.00 | 0.00 | 25 | 1017.4 |
| 20260509214204 | 22 | 312 | 4.8 | 14.5 | 0.00 | 0.00 | 0.00 | 26 | 1017.4 |
| 20260509213701 | 22 | 338 | 3.2 | 12.9 | 0.00 | 0.00 | 0.00 | 27 | 1017.4 |
| 20260509213156 | 22 | 347 | 4.8 | 12.9 | 0.00 | 0.00 | 0.00 | 26 | 1017.4 |
| 20260509212654 | 22 | 277 | 3.2 | 11.3 | 0.00 | 0.00 | 0.00 | 27 | 1017.7 |
| 20260509212151 | 22 | 291 | 4.8 | 16.1 | 0.00 | 0.00 | 0.00 | 26 | 1017.7 |
| 20260509211647 | 22 | 310 | 4.8 | 16.1 | 0.00 | 0.00 | 0.00 | 28 | 1017.7 |
| 20260509211144 | 22 | 350 | 4.8 | 16.1 | 0.00 | 0.00 | 0.00 | 30 | 1017.7 |
| 20260509210641 | 22 | 34 | 6.4 | 19.3 | 0.00 | 0.00 | 0.00 | 28 | 1017.7 |
| 20260509210138 | 22 | 249 | 6.4 | 19.3 | 0.00 | 0.00 | 0.00 | 29 | 1017.7 |
| 20260509205632 | 22 | 327 | 8.0 | 17.7 | 0.00 | 0.00 | 0.00 | 29 | 1017.7 |
| 20260509205127 | 22 | 267 | 4.8 | 17.7 | 0.00 | 0.00 | 0.00 | 31 | 1017.7 |
| 20260509204623 | 22 | 346 | 3.2 | 12.9 | 0.00 | 0.00 | 0.00 | 30 | 1017.7 |
| 20260509204120 | 22 | 306 | 1.6 | 6.4 | 0.00 | 0.00 | 0.00 | 34 | 1017.7 |
| 20260509203616 | 22 | 287 | 4.8 | 14.5 | 0.00 | 0.00 | 0.00 | 33 | 1018.1 |
| 20260509203114 | 21 | 335 | 6.4 | 14.5 | 0.00 | 0.00 | 0.00 | 33 | 1018.1 |
| 20260509202609 | 21 | 333 | 4.8 | 14.5 | 0.00 | 0.00 | 0.00 | 33 | 1018.1 |
| 20260509202104 | 21 | 0 | 6.4 | 16.1 | 0.00 | 0.00 | 0.00 | 30 | 1018.1 |
| 20260509201559 | 21 | 308 | 4.8 | 16.1 | 0.00 | 0.00 | 0.00 | 33 | 1018.5 |
| 20260509201057 | 21 | 304 | 4.8 | 12.9 | 0.00 | 0.00 | 0.00 | 35 | 1018.1 |
| 20260509200557 | 21 | 351 | 3.2 | 12.9 | 0.00 | 0.00 | 0.00 | 35 | 1018.1 |
| 20260509200053 | 21 | 318 | 3.2 | 11.3 | 0.00 | 0.00 | 0.00 | 36 | 1018.5 |
| 20260509195549 | 21 | 267 | 4.8 | 11.3 | 0.00 | 0.00 | 0.00 | 38 | 1018.5 |
| 20260509195044 | 21 | 326 | 3.2 | 12.9 | 0.00 | 0.00 | 0.00 | 34 | 1018.5 |
| 20260509194538 | 21 | 21 | 4.8 | 12.9 | 0.00 | 0.00 | 0.00 | 35 | 1018.5 |
| 20260509194036 | 21 | 338 | 3.2 | 11.3 | 0.00 | 0.00 | 0.00 | 34 | 1018.5 |
| 20260509193537 | 21 | 229 | 3.2 | 12.9 | 0.00 | 0.00 | 0.00 | 40 | 1018.9 |
| 20260509193033 | 21 | 337 | 6.4 | 12.9 | 0.00 | 0.00 | 0.00 | 36 | 1018.9 |
| 20260509192530 | 21 | 313 | 4.8 | 22.5 | 0.00 | 0.00 | 0.00 | 35 | 1018.9 |
| 20260509192025 | 21 | 345 | 3.2 | 22.5 | 0.00 | 0.00 | 0.00 | 36 | 1018.9 |
| 20260509191520 | 21 | 342 | 3.2 | 9.7 | 0.00 | 0.00 | 0.00 | 38 | 1018.9 |
| 20260509191016 | 21 | 309 | 4.8 | 17.7 | 0.00 | 0.00 | 0.00 | 41 | 1019.2 |
| 20260509190513 | 21 | 190 | 3.2 | 17.7 | 0.00 | 0.00 | 0.00 | 45 | 1019.2 |
| 20260509190011 | 20 | 354 | 4.8 | 14.5 | 0.00 | 0.00 | 0.00 | 37 | 1019.2 |
| 20260509185508 | 20 | 281 | 4.8 | 14.5 | 0.00 | 0.00 | 0.00 | 38 | 1019.2 |
| 20260509185004 | 20 | 335 | 4.8 | 14.5 | 0.00 | 0.00 | 0.00 | 37 | 1019.2 |
| 20260509184503 | 20 | 332 | 4.8 | 12.9 | 0.00 | 0.00 | 0.00 | 37 | 1019.2 |
| 20260509183958 | 21 | 340 | 3.2 | 14.5 | 0.00 | 0.00 | 0.00 | 38 | 1019.2 |
| 20260509183453 | 21 | 358 | 3.2 | 14.5 | 0.00 | 0.00 | 0.00 | 41 | 1019.2 |
| 20260509182949 | 20 | 320 | 3.2 | 11.3 | 0.00 | 0.00 | 0.00 | 38 | 1019.5 |
| 20260509182446 | 20 | 333 | 3.2 | 11.3 | 0.00 | 0.00 | 0.00 | 39 | 1019.5 |
| 20260509181944 | 20 | 332 | 3.2 | 14.5 | 0.00 | 0.00 | 0.00 | 37 | 1019.5 |
| 20260509181441 | 20 | 310 | 4.8 | 14.5 | 0.00 | 0.00 | 0.00 | 39 | 1019.5 |
| 20260509180939 | 20 | 327 | 6.4 | 14.5 | 0.00 | 0.00 | 0.00 | 39 | 1019.5 |
| 20260509180434 | 20 | 351 | 4.8 | 14.5 | 0.00 | 0.00 | 0.00 | 40 | 1019.5 |
| 20260509175931 | 20 | 292 | 4.8 | 14.5 | 0.00 | 0.00 | 0.00 | 39 | 1019.5 |
| 20260509175427 | 20 | 253 | 4.8 | 11.3 | 0.00 | 0.00 | 0.00 | 41 | 1019.5 |
| 20260509174923 | 20 | 302 | 6.4 | 20.9 | 0.00 | 0.00 | 0.00 | 43 | 1019.5 |
| 20260509174420 | 20 | 4 | 6.4 | 20.9 | 0.00 | 0.00 | 0.00 | 39 | 1019.5 |
| 20260509173915 | 19 | 324 | 4.8 | 14.5 | 0.00 | 0.00 | 0.00 | 40 | 1019.5 |
| 20260509173409 | 19 | 325 | 4.8 | 14.5 | 0.00 | 0.00 | 0.00 | 41 | 1019.5 |
| 20260509172906 | 20 | 321 | 4.8 | 14.5 | 0.00 | 0.00 | 0.00 | 41 | 1019.5 |
| 20260509172403 | 20 | 304 | 4.8 | 14.5 | 0.00 | 0.00 | 0.00 | 44 | 1019.5 |
| 20260509171859 | 19 | 355 | 4.8 | 16.1 | 0.00 | 0.00 | 0.00 | 42 | 1019.5 |
| 20260509171355 | 19 | 345 | 4.8 | 16.1 | 0.00 | 0.00 | 0.00 | 42 | 1019.5 |
| 20260509170852 | 18 | 346 | 4.8 | 12.9 | 0.00 | 0.00 | 0.00 | 44 | 1019.5 |
| 20260509170347 | 18 | 341 | 3.2 | 12.9 | 0.00 | 0.00 | 0.00 | 43 | 1019.5 |
| 20260509165842 | 18 | 327 | 4.8 | 20.9 | 0.00 | 0.00 | 0.00 | 46 | 1019.5 |
| 20260509165337 | 18 | 318 | 4.8 | 20.9 | 0.00 | 0.00 | 0.00 | 45 | 1019.5 |
| 20260509164833 | 17 | 316 | 4.8 | 14.5 | 0.00 | 0.00 | 0.00 | 47 | 1019.5 |
| 20260509164329 | 17 | 317 | 8.0 | 16.1 | 0.00 | 0.00 | 0.00 | 47 | 1019.5 |
| 20260509163826 | 17 | 335 | 6.4 | 16.1 | 0.00 | 0.00 | 0.00 | 46 | 1019.5 |
| 20260509163322 | 17 | 321 | 4.8 | 16.1 | 0.00 | 0.00 | 0.00 | 47 | 1019.5 |
| 20260509162821 | 17 | 296 | 4.8 | 12.9 | 0.00 | 0.00 | 0.00 | 47 | 1019.5 |
| 20260509162315 | 17 | 312 | 4.8 | 12.9 | 0.00 | 0.00 | 0.00 | 49 | 1019.5 |
| 20260509161811 | 16 | 320 | 3.2 | 11.3 | 0.00 | 0.00 | 0.00 | 52 | 1019.5 |
| 20260509161308 | 16 | 329 | 4.8 | 11.3 | 0.00 | 0.00 | 0.00 | 52 | 1019.5 |
| 20260509160803 | 16 | 316 | 4.8 | 12.9 | 0.00 | 0.00 | 0.00 | 54 | 1019.5 |
| 20260509160259 | 15 | 352 | 3.2 | 12.9 | 0.00 | 0.00 | 0.00 | 54 | 1019.5 |
| 20260509155754 | 15 | 326 | 3.2 | 11.3 | 0.00 | 0.00 | 0.00 | 54 | 1019.5 |
| 20260509155252 | 15 | 311 | 3.2 | 11.3 | 0.00 | 0.00 | 0.00 | 56 | 1019.5 |
| 20260509154747 | 13 | 320 | 1.6 | 8.0 | 0.00 | 0.00 | 0.00 | 58 | 1019.5 |
| 20260509154245 | 13 | 347 | 1.6 | 11.3 | 0.00 | 0.00 | 0.00 | 60 | 1019.5 |
| 20260509153741 | 12 | 320 | 1.6 | 11.3 | 0.00 | 0.00 | 0.00 | 62 | 1019.5 |
| 20260509153237 | 11 | 6 | 1.6 | 8.0 | 0.00 | 0.00 | 0.00 | 67 | 1019.5 |
| 20260509152734 | 11 | 335 | 3.2 | 8.0 | 0.00 | 0.00 | 0.00 | 71 | 1019.5 |
| 20260509152231 | 10 | 331 | 3.2 | 6.4 | 0.00 | 0.00 | 0.00 | 72 | 1019.5 |
| 20260509151728 | 10 | 337 | 3.2 | 6.4 | 0.00 | 0.00 | 0.00 | 75 | 1019.5 |
| 20260509151224 | 10 | 310 | 1.6 | 8.0 | 0.00 | 0.00 | 0.00 | 77 | 1019.5 |
| 20260509150722 | 9 | 340 | 1.6 | 8.0 | 0.00 | 0.00 | 0.00 | 80 | 1019.5 |
| 20260509150220 | 8 | 328 | 1.6 | 4.8 | 0.00 | 0.00 | 0.00 | 82 | 1019.2 |
| 20260509145717 | 8 | 335 | 1.6 | 4.8 | 0.00 | 0.00 | 0.00 | 84 | 1019.5 |
| 20260509145212 | 8 | 316 | 1.6 | 8.0 | 0.00 | 0.00 | 0.00 | 87 | 1019.5 |
| 20260509144708 | 8 | 334 | 1.6 | 8.0 | 0.00 | 0.00 | 0.00 | 88 | 1019.5 |
| 20260509144205 | 7 | 326 | 3.2 | 8.0 | 0.00 | 0.00 | 0.00 | 89 | 1019.5 |
| 20260509143703 | 7 | 328 | 1.6 | 8.0 | 0.00 | 0.00 | 0.00 | 90 | 1019.2 |
| 20260509143200 | 7 | 340 | 1.6 | 4.8 | 0.00 | 0.00 | 0.00 | 91 | 1019.2 |
| 20260509142655 | 7 | 315 | 1.6 | 4.8 | 0.00 | 0.00 | 0.00 | 91 | 1019.2 |
| 20260509142152 | 7 | 330 | 1.6 | 4.8 | 0.00 | 0.00 | 0.00 | 91 | 1019.2 |
| 20260509141648 | 6 | 339 | 1.6 | 4.8 | 0.00 | 0.00 | 0.00 | 91 | 1019.2 |
| 20260509141145 | 6 | 358 | 0.0 | 4.8 | 0.00 | 0.00 | 0.00 | 91 | 1019.2 |
| 20260509140641 | 6 | 288 | 0.0 | 0.0 | 0.00 | 0.00 | 0.00 | 91 | 1019.2 |
| 20260509140139 | 6 | 272 | 0.0 | 0.0 | 0.00 | 0.00 | 0.00 | 91 | 1019.2 |
| 20260509135636 | 6 | 272 | 0.0 | 0.0 | 0.00 | 0.00 | 0.00 | 91 | 1019.2 |
| 20260509135135 | 5 | 229 | 0.0 | 0.0 | 0.00 | 0.00 | 0.00 | 90 | 1019.2 |
| 20260509134631 | 5 | 229 | 0.0 | 0.0 | 0.00 | 0.00 | 0.00 | 90 | 1019.2 |
| 20260509134128 | 5 | 229 | 0.0 | 0.0 | 0.00 | 0.00 | 0.00 | 89 | 1019.2 |
| 20260509133625 | 5 | 229 | 0.0 | 0.0 | 0.00 | 0.00 | 0.00 | 89 | 1019.2 |
| 20260509133123 | 5 | 229 | 0.0 | 0.0 | 0.00 | 0.00 | 0.00 | 88 | 1019.2 |
| 20260509132621 | 5 | 229 | 0.0 | 0.0 | 0.00 | 0.00 | 0.00 | 87 | 1019.2 |
| 20260509132119 | 5 | 229 | 0.0 | 0.0 | 0.00 | 0.00 | 0.00 | 87 | 1019.2 |
| 20260509131614 | 5 | 226 | 0.0 | 0.0 | 0.00 | 0.00 | 0.00 | 86 | 1019.2 |
| 20260509131112 | 5 | 226 | 0.0 | 0.0 | 0.00 | 0.00 | 0.00 | 86 | 1018.9 |
| 20260509130607 | 5 | 226 | 0.0 | 0.0 | 0.00 | 0.00 | 0.00 | 86 | 1018.9 |
| 20260509130104 | 5 | 226 | 0.0 | 0.0 | 0.00 | 0.00 | 0.00 | 85 | 1018.9 |
| 20260509125601 | 5 | 226 | 0.0 | 0.0 | 0.00 | 0.00 | 0.00 | 85 | 1018.9 |
| 20260509125057 | 5 | 226 | 0.0 | 0.0 | 0.00 | 0.00 | 0.00 | 84 | 1018.9 |
| 20260509124554 | 5 | 226 | 0.0 | 0.0 | 0.00 | 0.00 | 0.00 | 84 | 1018.9 |
| 20260509124051 | 5 | 226 | 0.0 | 0.0 | 0.00 | 0.00 | 0.00 | 83 | 1018.9 |
| 20260509123549 | 5 | 226 | 0.0 | 0.0 | 0.00 | 0.00 | 0.00 | 83 | 1018.5 |
| 20260509123045 | 5 | 226 | 0.0 | 0.0 | 0.00 | 0.00 | 0.00 | 83 | 1018.9 |
| 20260509122541 | 5 | 239 | 0.0 | 0.0 | 0.00 | 0.00 | 0.00 | 82 | 1018.9 |
| 20260509122039 | 5 | 253 | 0.0 | 0.0 | 0.00 | 0.00 | 0.00 | 82 | 1018.9 |
| 20260509121535 | 5 | 329 | 0.0 | 0.0 | 0.00 | 0.00 | 0.00 | 81 | 1018.9 |
| 20260509121033 | 5 | 329 | 0.0 | 0.0 | 0.00 | 0.00 | 0.00 | 80 | 1018.5 |
| 20260509120531 | 6 | 329 | 0.0 | 0.0 | 0.00 | 0.00 | 0.00 | 80 | 1018.5 |
| 20260509120029 | 6 | 329 | 0.0 | 0.0 | 0.00 | 0.00 | 0.00 | 79 | 1018.5 |
| 20260509115525 | 6 | 329 | 0.0 | 0.0 | 0.00 | 0.00 | 0.00 | 78 | 1018.1 |
| 20260509115023 | 6 | 329 | 0.0 | 0.0 | 0.00 | 0.00 | 0.00 | 78 | 1018.1 |
| 20260509114521 | 6 | 329 | 0.0 | 0.0 | 0.00 | 0.00 | 0.00 | 77 | 1018.1 |
| 20260509114020 | 7 | 329 | 0.0 | 0.0 | 0.00 | 0.00 | 0.00 | 77 | 1018.1 |
| 20260509113518 | 7 | 329 | 0.0 | 0.0 | 0.00 | 0.00 | 0.00 | 76 | 1018.1 |
| 20260509113016 | 7 | 329 | 0.0 | 0.0 | 0.00 | 0.00 | 0.00 | 76 | 1018.1 |
| 20260509112512 | 8 | 329 | 0.0 | 1.6 | 0.00 | 0.00 | 0.00 | 77 | 1018.1 |
| 20260509112008 | 8 | 329 | 0.0 | 1.6 | 0.00 | 0.00 | 0.00 | 79 | 1018.1 |
| 20260509111506 | 8 | 329 | 0.0 | 0.0 | 0.00 | 0.00 | 0.00 | 80 | 1018.1 |
| 20260509111003 | 8 | 329 | 0.0 | 1.6 | 0.00 | 0.00 | 0.00 | 82 | 1018.1 |
| 20260509110459 | 8 | 329 | 0.0 | 3.2 | 0.00 | 0.00 | 0.00 | 82 | 1018.1 |
| 20260509105956 | 8 | 329 | 0.0 | 3.2 | 0.00 | 0.00 | 0.00 | 80 | 1018.1 |
| 20260509105455 | 8 | 329 | 0.0 | 3.2 | 0.00 | 0.00 | 0.00 | 73 | 1018.1 |
| 20260509104952 | 8 | 326 | 0.0 | 1.6 | 0.00 | 0.00 | 0.00 | 71 | 1018.1 |
| 20260509104449 | 7 | 326 | 0.0 | 0.0 | 0.00 | 0.00 | 0.00 | 70 | 1017.7 |
| 20260509103946 | 7 | 326 | 0.0 | 0.0 | 0.00 | 0.00 | 0.00 | 67 | 1017.7 |
| 20260509103443 | 7 | 326 | 0.0 | 3.2 | 0.00 | 0.00 | 0.00 | 66 | 1017.7 |
| 20260509102941 | 7 | 346 | 1.6 | 4.8 | 0.00 | 0.00 | 0.00 | 66 | 1017.7 |
| 20260509102439 | 8 | 4 | 1.6 | 4.8 | 0.00 | 0.00 | 0.00 | 65 | 1017.7 |
| 20260509101934 | 8 | 331 | 0.0 | 4.8 | 0.00 | 0.00 | 0.00 | 65 | 1017.7 |
| 20260509101431 | 8 | 307 | 0.0 | 1.6 | 0.00 | 0.00 | 0.00 | 64 | 1017.7 |
| 20260509100929 | 8 | 307 | 0.0 | 1.6 | 0.00 | 0.00 | 0.00 | 64 | 1017.7 |
| 20260509100426 | 8 | 307 | 0.0 | 0.0 | 0.00 | 0.00 | 0.00 | 64 | 1017.7 |
| 20260509095922 | 8 | 307 | 0.0 | 0.0 | 0.00 | 0.00 | 0.00 | 64 | 1017.7 |
| 20260509095419 | 8 | 307 | 0.0 | 0.0 | 0.00 | 0.00 | 0.00 | 64 | 1017.7 |
| 20260509094916 | 8 | 307 | 0.0 | 0.0 | 0.00 | 0.00 | 0.00 | 63 | 1017.7 |
| 20260509094413 | 8 | 307 | 0.0 | 0.0 | 0.00 | 0.00 | 0.00 | 64 | 1017.7 |
| 20260509093911 | 8 | 307 | 0.0 | 1.6 | 0.00 | 0.00 | 0.00 | 64 | 1017.7 |
| 20260509093408 | 8 | 307 | 0.0 | 1.6 | 0.00 | 0.00 | 0.00 | 64 | 1017.4 |
| 20260509092906 | 8 | 308 | 0.0 | 1.6 | 0.00 | 0.00 | 0.00 | 64 | 1017.4 |
| 20260509092403 | 8 | 308 | 0.0 | 1.6 | 0.00 | 0.00 | 0.00 | 64 | 1017.4 |
| 20260509091902 | 8 | 303 | 0.0 | 1.6 | 0.00 | 0.00 | 0.00 | 64 | 1017.4 |
| 20260509091358 | 9 | 302 | 0.0 | 0.0 | 0.00 | 0.00 | 0.00 | 63 | 1017.4 |
| 20260509090855 | 9 | 302 | 0.0 | 0.0 | 0.00 | 0.00 | 0.00 | 64 | 1017.4 |
| 20260509090353 | 9 | 302 | 0.0 | 0.0 | 0.00 | 0.00 | 0.00 | 64 | 1017.4 |
| 20260509085850 | 9 | 302 | 0.0 | 1.6 | 0.00 | 0.00 | 0.00 | 64 | 1017.4 |
| 20260509085347 | 9 | 302 | 0.0 | 1.6 | 0.00 | 0.00 | 0.00 | 64 | 1017.1 |
| 20260509084843 | 9 | 304 | 0.0 | 1.6 | 0.00 | 0.00 | 0.00 | 64 | 1017.4 |
| 20260509084340 | 9 | 304 | 0.0 | 3.2 | 0.00 | 0.00 | 0.00 | 64 | 1017.1 |
| 20260509083838 | 10 | 304 | 0.0 | 3.2 | 0.00 | 0.00 | 0.00 | 64 | 1017.1 |
| 20260509083335 | 10 | 212 | 0.0 | 1.6 | 0.00 | 0.00 | 0.00 | 63 | 1017.1 |
| 20260509082831 | 10 | 212 | 0.0 | 3.2 | 0.00 | 0.00 | 0.00 | 64 | 1017.1 |
| 20260509082328 | 10 | 218 | 0.0 | 1.6 | 0.00 | 0.00 | 0.00 | 64 | 1017.1 |
| 20260509081826 | 10 | 0 | 0.0 | 1.6 | 0.00 | 0.00 | 0.00 | 64 | 1017.1 |
| 20260509081322 | 10 | 0 | 0.0 | 1.6 | 0.00 | 0.00 | 0.00 | 63 | 1017.1 |
| 20260509080821 | 10 | 0 | 0.0 | 1.6 | 0.00 | 0.00 | 0.00 | 63 | 1017.1 |
| 20260509080318 | 10 | 0 | 0.0 | 0.0 | 0.00 | 0.00 | 0.00 | 63 | 1017.1 |
| 20260509075816 | 10 | 0 | 0.0 | 1.6 | 0.00 | 0.00 | 0.00 | 63 | 1017.1 |
| 20260509075313 | 10 | 0 | 0.0 | 1.6 | 0.00 | 0.00 | 0.00 | 63 | 1017.1 |
| 20260509074810 | 10 | 339 | 0.0 | 0.0 | 0.00 | 0.00 | 0.00 | 63 | 1017.1 |
| 20260509074308 | 10 | 339 | 0.0 | 0.0 | 0.00 | 0.00 | 0.00 | 62 | 1016.6 |
| 20260509073804 | 10 | 339 | 0.0 | 1.6 | 0.00 | 0.00 | 0.00 | 63 | 1016.6 |
| 20260509073300 | 10 | 339 | 0.0 | 1.6 | 0.00 | 0.00 | 0.00 | 63 | 1016.6 |
| 20260509072757 | 11 | 339 | 0.0 | 1.6 | 0.00 | 0.00 | 0.00 | 63 | 1016.6 |
| 20260509072253 | 11 | 339 | 0.0 | 1.6 | 0.00 | 0.00 | 0.00 | 62 | 1016.3 |
| 20260509071750 | 11 | 339 | 0.0 | 0.0 | 0.00 | 0.00 | 0.00 | 62 | 1016.3 |
| 20260509071247 | 11 | 339 | 0.0 | 1.6 | 0.00 | 0.00 | 0.00 | 61 | 1016.3 |
| 20260509070744 | 11 | 339 | 0.0 | 1.6 | 0.00 | 0.00 | 0.00 | 61 | 1016.3 |
| 20260509070241 | 11 | 339 | 0.0 | 1.6 | 0.00 | 0.00 | 0.00 | 61 | 1016.3 |
| 20260509065737 | 11 | 339 | 0.0 | 1.6 | 0.00 | 0.00 | 0.00 | 61 | 1016.0 |
| 20260509065234 | 11 | 339 | 0.0 | 0.0 | 0.00 | 0.00 | 0.00 | 61 | 1016.0 |
| 20260509064730 | 11 | 339 | 0.0 | 1.6 | 0.00 | 0.00 | 0.00 | 61 | 1016.0 |
| 20260509064228 | 11 | 339 | 0.0 | 1.6 | 0.00 | 0.00 | 0.00 | 60 | 1016.0 |
| 20260509063725 | 12 | 339 | 0.0 | 1.6 | 0.00 | 0.00 | 0.00 | 60 | 1015.5 |
| 20260509063221 | 12 | 339 | 0.0 | 1.6 | 0.00 | 0.00 | 0.00 | 59 | 1015.5 |
| 20260509062718 | 12 | 339 | 0.0 | 1.6 | 0.00 | 0.00 | 0.00 | 58 | 1015.5 |
| 20260509062215 | 12 | 339 | 0.0 | 1.6 | 0.00 | 0.00 | 0.00 | 58 | 1015.5 |
| 20260509061712 | 12 | 339 | 0.0 | 1.6 | 0.00 | 0.00 | 0.00 | 57 | 1015.5 |
| 20260509061210 | 12 | 339 | 0.0 | 0.0 | 0.00 | 0.00 | 0.00 | 57 | 1015.2 |
| 20260509060707 | 12 | 339 | 0.0 | 0.0 | 0.00 | 0.00 | 0.00 | 57 | 1015.2 |
| 20260509060203 | 12 | 339 | 0.0 | 0.0 | 0.00 | 0.00 | 0.00 | 56 | 1015.2 |
| 20260509055659 | 13 | 339 | 0.0 | 0.0 | 0.00 | 0.00 | 0.00 | 56 | 1015.2 |
| 20260509055155 | 13 | 339 | 0.0 | 0.0 | 0.00 | 0.00 | 0.00 | 55 | 1015.2 |
| 20260509054652 | 13 | 339 | 0.0 | 0.0 | 0.00 | 0.00 | 0.00 | 55 | 1015.2 |
| 20260509054149 | 13 | 339 | 0.0 | 0.0 | 0.00 | 0.00 | 0.00 | 55 | 1015.2 |
| 20260509053648 | 13 | 339 | 0.0 | 0.0 | 0.00 | 0.00 | 0.00 | 54 | 1014.8 |
| 20260509053144 | 13 | 339 | 0.0 | 1.6 | 0.00 | 0.00 | 0.00 | 54 | 1014.8 |
| 20260509052642 | 13 | 339 | 0.0 | 1.6 | 0.00 | 0.00 | 0.00 | 54 | 1014.8 |
| 20260509052139 | 14 | 339 | 0.0 | 1.6 | 0.00 | 0.00 | 0.00 | 54 | 1014.8 |
| 20260509051637 | 14 | 339 | 0.0 | 1.6 | 0.00 | 0.00 | 0.00 | 54 | 1014.5 |
| 20260509051134 | 15 | 339 | 0.0 | 1.6 | 0.00 | 0.00 | 0.00 | 54 | 1014.5 |
| 20260509050631 | 15 | 339 | 0.0 | 1.6 | 0.00 | 0.00 | 0.00 | 53 | 1014.5 |
| 20260509050127 | 15 | 339 | 0.0 | 1.6 | 0.00 | 0.00 | 0.00 | 52 | 1014.5 |
| 20260509045626 | 15 | 347 | 0.0 | 1.6 | 0.00 | 0.00 | 0.00 | 51 | 1014.5 |
| 20260509045122 | 15 | 347 | 0.0 | 0.0 | 0.00 | 0.00 | 0.00 | 51 | 1014.5 |
| 20260509044619 | 15 | 347 | 0.0 | 1.6 | 0.00 | 0.00 | 0.00 | 50 | 1014.5 |
| 20260509044117 | 16 | 347 | 0.0 | 1.6 | 0.00 | 0.00 | 0.00 | 50 | 1014.1 |
| 20260509043613 | 16 | 6 | 0.0 | 0.0 | 0.00 | 0.00 | 0.00 | 51 | 1014.1 |
| 20260509043108 | 16 | 6 | 0.0 | 0.0 | 0.00 | 0.00 | 0.00 | 50 | 1014.1 |
| 20260509042605 | 16 | 6 | 0.0 | 0.0 | 0.00 | 0.00 | 0.00 | 50 | 1014.5 |
| 20260509042101 | 16 | 6 | 0.0 | 0.0 | 0.00 | 0.00 | 0.00 | 49 | 1014.1 |
| 20260509041558 | 17 | 6 | 0.0 | 0.0 | 0.00 | 0.00 | 0.00 | 49 | 1014.1 |
| 20260509041055 | 17 | 6 | 0.0 | 1.6 | 0.00 | 0.00 | 0.00 | 48 | 1013.7 |
| 20260509040554 | 17 | 6 | 1.6 | 4.8 | 0.00 | 0.00 | 0.00 | 46 | 1013.7 |
| 20260509040050 | 17 | 6 | 1.6 | 4.8 | 0.00 | 0.00 | 0.00 | 45 | 1013.7 |
| 20260509035547 | 18 | 1 | 1.6 | 4.8 | 0.00 | 0.00 | 0.00 | 45 | 1013.4 |
| 20260509035044 | 18 | 8 | 1.6 | 4.8 | 0.00 | 0.00 | 0.00 | 44 | 1013.4 |
| 20260509034542 | 18 | 8 | 1.6 | 4.8 | 0.00 | 0.00 | 0.00 | 42 | 1013.4 |
| 20260509034039 | 18 | 0 | 3.2 | 8.0 | 0.00 | 0.00 | 0.00 | 41 | 1013.4 |
| 20260509033536 | 18 | 0 | 3.2 | 8.0 | 0.00 | 0.00 | 0.00 | 40 | 1012.9 |
| 20260509033032 | 18 | 348 | 3.2 | 8.0 | 0.00 | 0.00 | 0.00 | 40 | 1012.9 |
| 20260509032530 | 19 | 341 | 1.6 | 8.0 | 0.00 | 0.00 | 0.00 | 41 | 1012.9 |
| 20260509032027 | 20 | 348 | 0.0 | 1.6 | 0.00 | 0.00 | 0.00 | 41 | 1012.9 |
| 20260509031524 | 20 | 348 | 0.0 | 0.0 | 0.00 | 0.00 | 0.00 | 39 | 1012.9 |
| 20260509031022 | 20 | 348 | 0.0 | 0.0 | 0.00 | 0.00 | 0.00 | 37 | 1012.9 |
| 20260509030520 | 21 | 348 | 0.0 | 0.0 | 0.00 | 0.00 | 0.00 | 36 | 1012.9 |
| 20260509030016 | 21 | 348 | 0.0 | 0.0 | 0.00 | 0.00 | 0.00 | 35 | 1012.9 |
| 20260509025512 | 21 | 348 | 0.0 | 0.0 | 0.00 | 0.00 | 0.00 | 35 | 1012.6 |
| 20260509025008 | 21 | 348 | 0.0 | 1.6 | 0.00 | 0.00 | 0.00 | 34 | 1012.6 |
| 20260509024504 | 22 | 348 | 0.0 | 3.2 | 0.00 | 0.00 | 0.00 | 33 | 1012.6 |
| 20260509024000 | 22 | 348 | 1.6 | 8.0 | 0.00 | 0.00 | 0.00 | 32 | 1012.6 |
| 20260509023458 | 22 | 348 | 1.6 | 8.0 | 0.00 | 0.00 | 0.00 | 31 | 1012.6 |
| 20260509022949 | 22 | 334 | 3.2 | 8.0 | 0.00 | 0.00 | 0.00 | 31 | 1012.6 |
| 20260509022446 | 22 | 355 | 3.2 | 8.0 | 0.00 | 0.00 | 0.00 | 31 | 1012.6 |
| 20260509021943 | 22 | 348 | 4.8 | 9.7 | 0.00 | 0.00 | 0.00 | 31 | 1012.6 |
| 20260509021440 | 22 | 343 | 4.8 | 9.7 | 0.00 | 0.00 | 0.00 | 31 | 1012.6 |
| 20260509020938 | 22 | 327 | 4.8 | 11.3 | 0.00 | 0.00 | 0.00 | 31 | 1012.3 |
| 20260509020436 | 22 | 341 | 4.8 | 12.9 | 0.00 | 0.00 | 0.00 | 30 | 1012.3 |
| 20260509015932 | 23 | 356 | 4.8 | 12.9 | 0.00 | 0.00 | 0.00 | 29 | 1012.3 |
| 20260509015431 | 23 | 353 | 4.8 | 12.9 | 0.00 | 0.00 | 0.00 | 29 | 1012.3 |
| 20260509014927 | 23 | 348 | 3.2 | 11.3 | 0.00 | 0.00 | 0.00 | 29 | 1012.3 |
| 20260509014424 | 23 | 343 | 3.2 | 11.3 | 0.00 | 0.00 | 0.00 | 28 | 1012.3 |
| 20260509013920 | 23 | 346 | 3.2 | 12.9 | 0.00 | 0.00 | 0.00 | 28 | 1012.3 |
| 20260509013418 | 23 | 4 | 3.2 | 12.9 | 0.00 | 0.00 | 0.00 | 28 | 1012.3 |
| 20260509012913 | 23 | 340 | 3.2 | 12.9 | 0.00 | 0.00 | 0.00 | 28 | 1012.3 |
| 20260509012410 | 23 | 338 | 4.8 | 12.9 | 0.00 | 0.00 | 0.00 | 28 | 1012.3 |
| 20260509011907 | 23 | 358 | 3.2 | 12.9 | 0.00 | 0.00 | 0.00 | 27 | 1012.3 |
| 20260509011405 | 23 | 0 | 4.8 | 12.9 | 0.00 | 0.00 | 0.00 | 27 | 1012.3 |
| 20260509010903 | 24 | 322 | 4.8 | 12.9 | 0.00 | 0.00 | 0.00 | 27 | 1012.3 |
| 20260509010400 | 24 | 338 | 4.8 | 16.1 | 0.00 | 0.00 | 0.00 | 26 | 1012.3 |
| 20260509005856 | 23 | 330 | 6.4 | 16.1 | 0.00 | 0.00 | 0.00 | 27 | 1012.3 |
| 20260509005354 | 23 | 328 | 4.8 | 12.9 | 0.00 | 0.00 | 0.00 | 29 | 1012.3 |
| 20260509004849 | 23 | 341 | 4.8 | 14.5 | 0.00 | 0.00 | 0.00 | 27 | 1012.3 |
| 20260509004345 | 23 | 354 | 4.8 | 14.5 | 0.00 | 0.00 | 0.00 | 27 | 1012.6 |
| 20260509003843 | 23 | 16 | 4.8 | 14.5 | 0.00 | 0.00 | 0.00 | 28 | 1012.6 |
| 20260509003340 | 23 | 12 | 6.4 | 14.5 | 0.00 | 0.00 | 0.00 | 28 | 1012.6 |
| 20260509002837 | 23 | 344 | 6.4 | 11.3 | 0.00 | 0.00 | 0.00 | 26 | 1012.6 |
| 20260509002335 | 23 | 329 | 4.8 | 14.5 | 0.00 | 0.00 | 0.00 | 26 | 1012.9 |
| 20260509001833 | 23 | 358 | 6.4 | 14.5 | 0.00 | 0.00 | 0.00 | 26 | 1012.9 |
| 20260509001328 | 23 | 354 | 6.4 | 17.7 | 0.00 | 0.00 | 0.00 | 25 | 1012.9 |
| 20260509000826 | 23 | 14 | 6.4 | 17.7 | 0.00 | 0.00 | 0.00 | 25 | 1012.9 |
| 20260509000325 | 23 | 319 | 6.4 | 17.7 | 0.00 | 0.00 | 0.00 | 25 | 1012.9 |
| 20260508235820 | 23 | 334 | 4.8 | 17.7 | 0.00 | 0.00 | 0.00 | 25 | 1012.9 |